Total_Precipitation_Accumulation
0.00 0.00 0.01 0.04 0.01 0.03 0.19 0.43 1.24 1.93 2.25 3.63 3.58 3.02 2.36 1.49 1.12 1.36 0.89 0.21 0.07 0.11 0.06 0.02 0.07 0.10 0.05 0.04 0.07 0.13 0.28 0.42 0.64 0.67 0.71 0.83 0.66 0.84 0.97 1.08 1.16 1.38 1.33 1.92
0.00 0.00 0.06 0.02 0.00 0.02 0.03 0.37 0.97 1.27 1.48 2.51 4.07 3.44 2.77 1.97 1.13 1.09 1.30 0.70 0.26 0.20 0.16 0.04 0.05 0.05 0.04 0.03 0.03 0.15 0.31 0.40 0.34 0.22 0.16 0.53 0.87 1.41 1.84 1.40 1.49 1.73 1.22 1.50
0.00 0.00 0.01 0.00 0.02 0.00 0.06 0.30 0.68 0.92 0.65 1.33 3.14 4.63 3.52 2.39 1.70 1.57 0.94 0.69 0.51 0.21 0.21 0.22 0.12 0.05 0.04 0.01 0.01 0.02 0.14 0.25 0.29 0.27 0.30 0.92 1.70 2.57 2.46 2.57 2.22 1.94 1.33 1.11
0.00 0.00 0.00 0.00 0.00 0.01 0.13 0.20 0.62 1.37 0.81 0.99 0.71 3.09 4.33 2.57 2.16 1.89 0.97 0.75 0.52 0.39 0.40 0.45 0.24 0.10 0.03 0.03 0.05 0.04 0.14 0.24 0.21 0.35 0.28 0.75 1.49 1.77 1.57 1.72 1.66 1.50 1.40 1.20
0.00 0.00 0.01 0.00 0.02 0.04 0.06 0.18 0.56 0.67 0.63 0.29 0.38 1.10 2.08 2.21 2.15 2.14 1.03 0.62 0.71 0.98 0.38 0.22 0.16 0.18 0.21 0.15 0.39 0.34 0.23 0.33 0.32 0.42 0.81 0.71 0.90 1.01 1.32 1.51 1.94 1.81 1.41 1.70
0.00 0.00 0.00 0.00 0.03 0.04 0.06 0.08 0.32 0.59 0.46 0.46 0.29 0.38 1.36 1.81 1.12 1.51 0.99 0.67 0.52 0.70 0.47 0.41 0.45 0.33 0.32 0.56 0.88 0.40 0.27 0.27 0.45 0.52 0.60 0.92 1.62 2.16 2.22 2.79 2.16 1.29 1.16 2.09
0.00 0.00 0.00 0.00 0.01 0.02 0.03 0.06 0.34 0.42 0.47 0.77 0.29 0.37 0.79 0.97 0.81 1.29 1.28 0.99 0.80 0.71 0.96 0.54 0.51 0.30 0.27 0.26 0.50 0.24 0.29 0.29 0.27 0.41 0.46 0.77 2.08 3.52 3.03 2.50 1.47 1.40 1.35 1.54
0.00 0.00 0.00 0.00 0.00 0.01 0.01 0.01 0.13 0.31 0.41 0.62 0.36 0.77 0.54 0.33 0.35 0.90 0.69 0.86 1.42 1.29 0.94 1.07 0.80 0.50 0.27 0.20 0.20 0.10 0.30 0.30 0.31 0.51 0.75 1.96 5.19 4.15 2.61 2.32 1.93 1.05 1.55 1.39
0.00 0.00 0.00 0.00 0.00 0.00 0.00 0.01 0.04 0.13 0.18 0.37 0.44 0.99 0.71 0.39 0.38 0.51 0.56 0.94 1.24 1.23 1.05 2.63 1.42 0.94 0.61 0.17 0.13 0.25 0.59 0.44 0.50 0.72 1.75 3.07 3.59 3.76 3.70 3.36 2.56 1.41 1.53 1.49
0.00 0.00 0.00 0.00 0.00 0.01 0.00 0.01 0.03 0.07 0.23 0.25 0.59 1.27 1.33 0.65 1.26 0.80 0.57 0.76 0.72 1.20 1.26 1.31 1.24 1.08 0.86 0.52 0.38 0.41 0.61 0.64 0.94 1.41 2.19 2.15 2.72 2.46 2.35 2.40 1.86 1.43 2.15 2.75
0.01 0.00 0.01 0.00 0.02 0.03 0.01 0.00 0.01 0.01 0.11 0.32 0.58 1.01 1.16 1.02 1.67 1.43 0.88 0.69 1.08 0.63 1.07 1.73 2.34 2.69 2.07 1.70 1.47 1.05 1.37 2.05 2.59 2.70 2.81 3.25 3.00 2.04 1.71 1.56 1.31 1.23 1.74 2.17
0.02 0.01 0.01 0.01 0.03 0.09 0.12 0.07 0.06 0.02 0.16 0.21 0.30 0.72 0.84 1.00 1.17 1.31 1.91 1.16 1.23 0.74 0.97 1.19 1.73 3.08 4.52 3.08 3.67 4.78 4.07 4.04 4.32 3.85 3.39 3.44 2.59 2.28 1.55 0.99 1.07 1.72 1.72 1.82
0.09 0.06 0.06 0.09 0.08 0.03 0.00 0.02 0.17 0.14 0.14 0.07 0.14 0.45 1.03 0.73 1.25 1.54 2.18 2.04 1.47 1.86 2.56 1.48 1.37 1.74 3.08 3.07 3.12 6.18 7.90 7.37 5.90 4.16 3.70 2.64 2.74 1.73 1.43 1.12 0.83 0.94 1.43 1.98
0.21 0.06 0.02 0.19 0.24 0.10 0.02 0.02 0.01 0.06 0.09 0.03 0.08 0.35 1.06 0.81 1.52 0.83 1.42 2.50 2.04 1.99 1.99 2.62 2.84 3.11 3.73 4.61 4.89 5.43 5.15 4.93 5.26 3.84 3.87 2.91 2.83 2.64 1.98 1.77 1.55 1.20 1.26 1.32
0.12 0.02 0.00 0.03 0.01 0.01 0.05 0.04 0.03 0.01 0.01 0.06 0.37 0.15 0.76 0.48 0.41 0.78 0.62 0.59 0.66 0.87 1.02 1.14 1.59 1.66 2.78 3.80 3.28 4.28 4.52 4.02 3.34 3.84 4.88 4.70 3.80 3.25 3.11 3.42 2.87 2.08 1.78 1.66
0.11 0.04 0.00 0.00 0.01 0.01 0.01 0.01 0.01 0.05 0.13 0.07 0.26 0.51 0.33 0.54 0.58 0.50 0.91 1.36 1.44 1.17 1.02 1.10 1.54 1.51 1.61 1.93 2.08 2.94 4.41 5.03 3.65 2.78 2.88 3.76 4.63 5.14 4.33 4.25 3.91 4.33 3.65 3.24
0.17 0.16 0.15 0.07 0.06 0.02 0.06 0.01 0.01 0.01 0.04 0.05 0.14 0.65 0.62 0.65 0.75 0.97 0.83 1.17 1.90 1.79 1.55 1.41 1.51 2.01 2.00 1.92 1.73 1.77 2.33 3.49 4.09 4.17 3.56 3.48 3.93 5.43 5.81 4.63 4.41 4.71 5.06 6.28
0.16 0.22 0.23 0.19 0.25 0.25 0.08 0.06 0.04 0.07 0.08 0.20 0.35 0.31 0.50 0.62 0.40 0.56 0.95 1.07 1.32 1.84 1.90 1.72 1.57 1.85 1.73 2.11 2.46 2.18 2.25 2.32 2.67 3.23 3.92 4.33 4.18 4.88 5.52 4.68 4.22 4.70 6.20 6.94
0.09 0.24 0.25 0.17 0.37 0.36 0.13 0.10 0.05 0.07 0.17 0.21 0.24 0.41 1.11 1.06 0.75 0.63 0.72 0.75 0.81 1.21 1.14 1.33 1.70 1.72 2.01 1.92 2.22 2.48 2.37 2.20 2.29 2.38 3.10 4.37 5.51 5.58 6.36 6.59 5.83 5.88 5.61 4.96
0.15 0.28 0.39 0.26 0.62 0.84 0.62 0.25 0.06 0.05 0.28 0.42 0.36 0.49 1.25 1.08 1.23 1.04 0.81 0.84 1.00 0.86 0.76 0.66 0.65 0.94 1.31 2.05 2.23 2.43 2.79 2.37 2.59 4.44 3.74 3.56 4.95 6.43 6.26 5.97 6.14 6.10 6.41 5.99
0.64 0.53 0.48 0.43 0.76 0.73 0.46 0.23 0.06 0.28 0.41 0.36 0.48 0.96 1.16 1.19 1.65 1.71 1.33 1.23 0.76 0.69 0.75 0.41 0.34 0.44 0.65 0.95 1.36 2.06 1.91 2.24 3.21 3.43 4.08 5.35 5.90 5.87 5.35 5.05 4.71 5.00 5.11 5.09
1.01 1.18 0.80 0.63 0.96 1.03 0.60 0.48 0.38 0.38 0.35 0.49 0.55 0.89 1.85 1.38 1.32 1.03 0.75 0.72 0.77 0.60 0.89 0.64 0.40 0.51 0.61 0.87 1.22 1.68 2.11 2.22 2.86 4.06 5.52 5.93 5.37 4.91 4.47 4.49 5.12 5.22 5.31 5.64
1.01 0.89 0.79 0.82 1.07 1.18 0.72 0.60 0.34 0.64 0.76 0.62 0.64 0.64 0.78 0.78 0.78 0.91 0.79 0.69 0.64 0.39 0.80 0.83 0.45 0.49 0.93 1.19 1.28 1.57 1.85 2.16 2.78 3.19 3.61 3.78 3.89 3.73 3.51 3.79 4.01 3.98 4.11 3.95
1.76 1.03 0.83 0.94 1.01 1.02 0.78 0.52 0.45 0.39 0.74 0.32 0.32 0.40 0.71 0.72 0.52 0.45 0.41 0.38 0.43 0.43 0.67 1.83 1.75 1.14 1.54 1.57 1.65 1.62 1.65 1.92 2.40 3.02 3.15 2.49 1.86 2.00 1.84 1.88 1.97 2.14 2.33 2.45
2.60 2.59 1.55 1.02 1.14 1.40 1.33 0.96 0.66 0.71 0.71 0.53 0.47 0.34 0.31 0.36 0.43 0.48 0.43 0.40 0.44 0.65 0.78 1.47 2.21 2.38 2.14 2.53 2.74 3.08 2.87 3.44 3.92 3.25 1.96 1.56 1.76 2.31 2.57 2.86 3.04 2.64 2.59 2.61
2.46 2.75 2.51 1.90 1.93 1.98 1.40 1.30 0.96 1.02 0.94 0.88 0.83 0.83 0.71 0.57 0.46 0.44 0.47 0.48 0.50 0.67 1.27 1.93 2.72 3.35 3.57 3.43 3.53 3.51 3.56 3.24 2.69 1.87 1.67 1.90 1.87 2.32 2.64 2.34 2.53 3.03 3.32 3.30